カタログに戻る

STTW-3

運用中科学GEO
NORAD 19710·PAYLOAD·🇨🇳 China

打ち上げ Dec 22, 1988 から Xichang Satellite Launch Center

Loading…

TLE

最新Source: Space-Track

元期: Sep 13, 2026, 22:40 UTC

1 19710U 88111A   26256.94494787  .00000117  00000-0  00000+0 0  9998
2 19710  14.0049 344.8888 0005001 196.5430 188.8153  1.00269094131735

AllMySatでSTTW-3をリアルタイム追跡

Download on the App Store